• Join FlightAware (Why Join?)
  • Login
  • US Flag 
06:20PM EST


 

Airport Tracker/Info


-or-


 

Live Flight TrackerFlight Track Log ✈ PDT4480 ✈ 16-Apr-2013 ✈ KPHL - KISP

Flight Track Log - Related Links

Times and Time Zones

All times are in EDT time to prevent confusion due to time zone crossing. See the PDT4480 flight status page for this flight to view local times or setup timezone preferences in your user account.

Time Position Orientation Groundspeed Altitude Reporting Facility
EDT Latitude Longitude Course Direction KTS MPH feet Rate Location/Type
03:11PM 39.8667 -75.2667 186° South 113 130 700  Level Philadelphia TRACON
03:11PM 39.8472 -75.2692 186° South 109 125 1,500 1,532 Climbing FAA TRACON SMA TRACON (SMA)
03:11PM 39.8372 -75.2725 194° South 113 130 1,900 1,200 Climbing FAA TRACON SMA TRACON (SMA)
03:12PM 39.8278 -75.2761 196° South 114 131 2,300 1,050 Climbing FAA TRACON SMA TRACON (SMA)
03:12PM 39.8186 -75.2800 198° South 113 130 2,600 1,200 Climbing FAA TRACON SMA TRACON (SMA)
03:12PM 39.8075 -75.2850 199° South 113 130 3,100 1,350 Climbing FAA TRACON SMA TRACON (SMA)
03:13PM 39.7972 -75.2886 195° South 113 130 3,500 1,200 Climbing FAA TRACON SMA TRACON (SMA)
03:13PM 39.7892 -75.2919 198° South 111 128 3,900 1,650 Climbing FAA TRACON SMA TRACON (SMA)
03:13PM 39.7775 -75.2953 192° South 108 124 4,600 1,463 Climbing FAA TRACON SMA TRACON (SMA)
03:14PM 39.7686 -75.2981 194° South 107 123 4,900 585 Climbing FAA TRACON SMA TRACON (SMA)
03:14PM 39.7589 -75.3011 194° South 112 129 5,000 615 Climbing FAA TRACON SMA TRACON (SMA)
03:14PM 39.7431 -75.3061 194° South 153 176 5,300 923 Climbing FAA TRACON SMA TRACON (SMA)
03:15PM 39.7306 -75.3092 191° South 152 175 5,600 900 Climbing FAA TRACON SMA TRACON (SMA)
03:15PM 39.7172 -75.3133 194° South 154 177 5,900 1,050 Climbing FAA TRACON SMA TRACON (SMA)
03:15PM 39.7008 -75.3175 191° South 156 180 6,300 1,050 Climbing FAA TRACON SMA TRACON (SMA)
03:16PM 39.6878 -75.3183 183° South 166 191 6,600 900 Climbing FAA TRACON SMA TRACON (SMA)
03:16PM 39.6764 -75.3019 132° Southeast 196 226 6,900 1,050 Climbing FAA TRACON SMA TRACON (SMA)
03:16PM 39.6753 -75.2769 93° East 200 230 7,300 1,100 Climbing FAA TRACON SMA TRACON (SMA)
03:17PM 39.6817 -75.2325 79° East 199 229 8,000 1,100 Climbing FAA TRACON SMA TRACON (SMA)
03:17PM 39.6858 -75.2072 78° East 191 220 8,400 1,050 Climbing FAA TRACON SMA TRACON (SMA)
03:18PM 39.6906 -75.1875 73° East 191 220 8,700 900 Climbing FAA TRACON SMA TRACON (SMA)
03:18PM 39.6967 -75.1625 72° East 194 223 9,000 450 Climbing FAA TRACON SMA TRACON (SMA)
03:18PM 39.7028 -75.1397 71° East 201 231 9,000  Level FAA TRACON SMA TRACON (SMA)
03:19PM 39.7061 -75.1183 79° East 215 247 9,000  Level FAA TRACON SMA TRACON (SMA)
03:19PM 39.7119 -75.0906 75° East 235 270 9,000  Level FAA TRACON SMA TRACON (SMA)
03:19PM 39.7178 -75.0589 77° East 238 274 9,000  Level FAA TRACON SMA TRACON (SMA)
03:20PM 39.7208 -75.0347 81° East 243 280 9,000  Level FAA TRACON SMA TRACON (SMA)
03:20PM 39.7272 -75.0050 74° East 246 283 9,000  Level FAA TRACON SMA TRACON (SMA)
03:20PM 39.7356 -74.9708 72° East 251 289 9,000  Level FAA TRACON SMA TRACON (SMA)
03:21PM 39.7414 -74.9436 74° East 254 292 9,000  Level FAA TRACON SMA TRACON (SMA)
03:21PM 39.7475 -74.9100 77° East 259 298 9,000  Level FAA TRACON SMA TRACON (SMA)
03:21PM 39.7522 -74.8806 78° East 257 296 9,000  Level FAA TRACON SMA TRACON (SMA)
03:22PM 39.7572 -74.8528 77° East 258 297 9,000  Level FAA TRACON SMA TRACON (SMA)
03:22PM 39.7628 -74.8247 76° East 259 298 9,000  Level FAA TRACON SMA TRACON (SMA)
03:22PM 39.7706 -74.7906 73° East 258 297 9,000 150 Level FAA TRACON SMA TRACON (SMA)
03:23PM 39.7772 -74.7650 71° East 258 297 9,100 600 Climbing FAA TRACON SMA TRACON (SMA)
03:23PM 39.7842 -74.7372 72° East 253 291 9,400 1,024 Climbing FAA TRACON SMA TRACON (SMA)
03:23PM 39.7939 -74.7069 67° East 236 272 9,800 1,050 Climbing FAA TRACON SMA TRACON (SMA)
03:24PM 39.7994 -74.6836 73° East 233 268 10,100 923 Climbing FAA TRACON SMA TRACON (SMA)
03:24PM 39.8008 -74.6586 86° East 215 247 10,400 1,050 Climbing FAA TRACON SMA TRACON (SMA)
03:24PM 39.8047 -74.6275 81° East 223 257 10,800 900 Climbing FAA TRACON SMA TRACON (SMA)
03:25PM 39.8058 -74.6056 86° East 221 254 11,000 300 Climbing FAA TRACON SMA TRACON (SMA)
03:25PM 39.8083 -74.5783 83° East 224 258 11,000  Level FAA TRACON SMA TRACON (SMA)
03:25PM 39.8108 -74.5450 84° East 235 270 11,000  Level FAA TRACON SMA TRACON (SMA)
03:26PM 39.8122 -74.5172 86° East 245 282 11,000  Level FAA TRACON SMA TRACON (SMA)
03:26PM 39.8133 -74.4822 88° East 252 290 11,000  Level FAA TRACON SMA TRACON (SMA)
03:26PM 39.8142 -74.4542 88° East 256 295 11,000  Level FAA TRACON SMA TRACON (SMA)
03:27PM 39.8158 -74.4239 86° East 258 297 11,000  Level FAA TRACON SMA TRACON (SMA)
03:27PM 39.8153 -74.3947 91° East 260 299 11,000  Level FAA TRACON SMA TRACON (SMA)
03:27PM 39.8144 -74.3586 92° East 262 302 11,000  Level FAA TRACON SMA TRACON (SMA)
03:28PM 39.8150 -74.3508 85° East 262 302 11,000  Level FAA TRACON SMA TRACON (SMA)
03:28PM 39.8150 -74.3508 270° West 262 302 11,000  Level FAA TRACON SMA TRACON (SMA)
03:29PM 39.8319 -74.2147 81° East 257 296 11,000  Level New York Center
03:30PM 39.8636 -74.1269 65° Northeast 257 296 11,000  Level New York Center
03:31PM 39.8889 -74.0469 68° East 257 296 11,000  Level New York Center
03:32PM 39.9144 -73.9564 70° East 264 304 11,000  Level New York Center
03:33PM 39.9442 -73.8575 69° East 264 304 11,000  Level New York Center
03:34PM 39.9714 -73.7692 68° East 264 304 11,000  Level New York Center
03:35PM 39.9942 -73.6972 68° East 264 304 11,000  Level New York Center
03:37PM 40.0861 -73.5439 52° Northeast 260 299 11,000 -70 Level Boston Center
03:38PM 40.1306 -73.4686 52° Northeast 260 299 10,800 -347 Descending Boston Center
03:39PM 40.1769 -73.3878 53° Northeast 267 307 10,300 -600 Descending Boston Center
03:40PM 40.2256 -73.3097 51° Northeast 272 313 9,600 -645 Descending Boston Center
03:41PM 40.2742 -73.2289 52° Northeast 272 313 9,000 -300 Descending Boston Center
03:42PM 40.3225 -73.1531 50° Northeast 272 313 9,000  Level Boston Center
03:43PM 40.3625 -73.0747 56° Northeast 267 307 9,000 -615 Level Boston Center
03:45PM 40.4500 -72.9500 47° Northeast 286 329 7,400 -1,000 Descending New York TRACON
03:46PM 40.5167 -72.9333 11° North 275 316 6,400 -950 Descending New York TRACON
03:47PM 40.6000 -72.9000 17° North 275 316 5,500 -833 Descending New York TRACON
03:49PM 40.7333 -72.8833 North 259 298 3,900 -825 Descending New York TRACON
03:51PM 40.8667 -72.9000 355° North 242 278 2,200 -633 Descending New York TRACON
03:52PM 40.9333 -72.9333 339° North 233 268 2,000 -150 Descending New York TRACON
03:53PM 40.9167 -72.9833 246° West 157 181 1,900 -133 Descending New York TRACON
03:55PM 40.8667 -73.0167 207° Southwest 105 121 1,600 -150 Descending New York TRACON